CX405 YMML-YSSY

Flight info

Callsign CX405
Flight time 0h 59m
Altitude 37000
Route DOSEL2/34 DOSEL Y59 RIVET
Aircraft B77W/H-SDE1E2E3FGHIJ2J3J4J5M1RWXY/LB1D1

Departure

Time 2026-04-25 05:47
Airport Melbourne Airport (YMML)

Arrival

Time 2026-04-25 06:46
Airport Sydney Kingsford Smith International Airport (YSSY)
Time Latitude Longitude Altitude Speed Heading
2026-04-25 04:58 -37.66913 144.84512 406 ft 0 kts 10°
2026-04-25 05:33 -37.66914 144.84512 406 ft 3 kts 10°
2026-04-25 05:33 -37.66934 144.84507 402 ft 3 kts 10°
2026-04-25 05:33 -37.66953 144.84503 400 ft 3 kts 10°
2026-04-25 05:34 -37.66973 144.84498 400 ft 3 kts 10°
2026-04-25 05:34 -37.66992 144.84492 400 ft 3 kts 25°
2026-04-25 05:34 -37.67009 144.84480 397 ft 3 kts 42°
2026-04-25 05:34 -37.67022 144.84461 401 ft 3 kts 59°
2026-04-25 05:35 -37.67030 144.84439 400 ft 3 kts 76°
2026-04-25 05:35 -37.67032 144.84416 399 ft 3 kts 88°
2026-04-25 05:35 -37.67033 144.84394 399 ft 2 kts 88°
2026-04-25 05:35 -37.67033 144.84376 399 ft 0 kts 88°
2026-04-25 05:39 -37.67034 144.84388 399 ft 4 kts 93°
2026-04-25 05:40 -37.67066 144.84437 394 ft 11 kts 155°
2026-04-25 05:40 -37.67153 144.84456 394 ft 15 kts 189°
2026-04-25 05:40 -37.67209 144.84349 392 ft 17 kts 264°
2026-04-25 05:40 -37.67213 144.84302 391 ft 1 kts 262°
2026-04-25 05:41 -37.67225 144.84289 390 ft 4 kts 210°
2026-04-25 05:41 -37.67275 144.84286 388 ft 11 kts 173°
2026-04-25 05:41 -37.67379 144.84303 385 ft 18 kts 172°
2026-04-25 05:41 -37.67519 144.84328 380 ft 22 kts 171°
2026-04-25 05:42 -37.67680 144.84358 379 ft 25 kts 172°
2026-04-25 05:42 -37.67858 144.84392 370 ft 24 kts 172°
2026-04-25 05:42 -37.68034 144.84425 365 ft 27 kts 172°
2026-04-25 05:42 -37.68219 144.84459 362 ft 19 kts 171°
2026-04-25 05:43 -37.68360 144.84452 360 ft 22 kts 201°
2026-04-25 05:43 -37.68488 144.84349 354 ft 19 kts 215°
2026-04-25 05:43 -37.68533 144.84298 355 ft 7 kts 240°
2026-04-25 05:43 -37.68538 144.84283 354 ft 0 kts 248°
2026-04-25 05:44 -37.68539 144.84281 354 ft 0 kts 250°
2026-04-25 05:45 -37.68543 144.84259 353 ft 8 kts 259°
2026-04-25 05:46 -37.68549 144.84154 352 ft 8 kts 266°
2026-04-25 05:46 -37.68512 144.84084 356 ft 7 kts 347°
2026-04-25 05:46 -37.68351 144.84055 362 ft 54 kts 352°
2026-04-25 05:46 -37.67646 144.83929 377 ft 147 kts 352°
2026-04-25 05:47 -37.66542 144.83737 1165 ft 162 kts 353°
2026-04-25 05:47 -37.65451 144.83536 2377 ft 159 kts 351°
2026-04-25 05:47 -37.64274 144.83299 2848 ft 185 kts 351°
2026-04-25 05:47 -37.62882 144.83022 3195 ft 219 kts 351°
2026-04-25 05:48 -37.61298 144.82707 3823 ft 235 kts 351°
2026-04-25 05:48 -37.59655 144.82445 4769 ft 240 kts
2026-04-25 05:48 -37.58021 144.82916 5763 ft 246 kts 18°
2026-04-25 05:48 -37.56404 144.83829 6585 ft 261 kts 21°
2026-04-25 05:49 -37.54750 144.84858 7441 ft 269 kts 22°
2026-04-25 05:49 -37.53629 144.85562 8026 ft 274 kts 22°
2026-04-25 05:49 -37.51909 144.86637 8992 ft 278 kts 22°
2026-04-25 05:49 -37.49589 144.88067 10298 ft 282 kts 22°
2026-04-25 05:50 -37.47770 144.89172 10844 ft 302 kts 22°
2026-04-25 05:50 -37.45773 144.90377 11086 ft 334 kts 22°
2026-04-25 05:50 -37.44341 144.91307 11229 ft 352 kts 29°
2026-04-25 05:50 -37.42515 144.93458 11700 ft 374 kts 50°
2026-04-25 05:51 -37.40998 144.96189 12464 ft 386 kts 52°
2026-04-25 05:51 -37.38935 144.99927 14020 ft 391 kts 52°
2026-04-25 05:51 -37.37898 145.01794 14700 ft 395 kts 52°
2026-04-25 05:51 -37.36300 145.04653 15661 ft 403 kts 52°
2026-04-25 05:52 -37.34669 145.07554 16636 ft 410 kts 52°
2026-04-25 05:52 -37.33001 145.10505 17621 ft 417 kts 52°
2026-04-25 05:52 -37.31304 145.13500 18554 ft 425 kts 52°
2026-04-25 05:52 -37.29575 145.16545 19409 ft 430 kts 52°
2026-04-25 05:53 -37.27829 145.19620 20308 ft 435 kts 52°
2026-04-25 05:53 -37.26062 145.22730 21197 ft 439 kts 52°
2026-04-25 05:53 -37.24273 145.25872 22017 ft 445 kts 52°
2026-04-25 05:53 -37.22456 145.29061 22833 ft 451 kts 52°
2026-04-25 05:54 -37.20622 145.32279 23651 ft 456 kts 52°
2026-04-25 05:54 -37.18765 145.35533 24342 ft 462 kts 52°
2026-04-25 05:54 -37.14984 145.42145 25669 ft 470 kts 52°
2026-04-25 05:55 -37.13060 145.45500 26277 ft 476 kts 52°
2026-04-25 05:55 -37.11115 145.48886 26894 ft 480 kts 52°
2026-04-25 05:55 -37.09156 145.52295 27518 ft 484 kts 52°
2026-04-25 05:55 -37.07207 145.55687 28118 ft 488 kts 52°
2026-04-25 05:56 -37.05216 145.59147 28685 ft 492 kts 52°
2026-04-25 05:56 -37.03204 145.62640 29199 ft 497 kts 52°
2026-04-25 05:56 -37.01173 145.66165 29684 ft 501 kts 52°
2026-04-25 05:56 -36.99131 145.69705 30209 ft 503 kts 52°
2026-04-25 05:57 -36.97080 145.73258 30823 ft 502 kts 52°
2026-04-25 05:57 -36.95043 145.76785 31460 ft 499 kts 52°
2026-04-25 05:57 -36.93011 145.80297 32050 ft 497 kts 52°
2026-04-25 05:57 -36.90986 145.83791 32614 ft 497 kts 52°
2026-04-25 05:58 -36.88959 145.87288 33160 ft 496 kts 52°
2026-04-25 05:58 -36.86932 145.90779 33699 ft 496 kts 52°
2026-04-25 05:58 -36.84909 145.94260 34239 ft 495 kts 52°
2026-04-25 05:58 -36.82886 145.97737 34703 ft 494 kts 52°
2026-04-25 05:59 -36.80858 146.01220 35128 ft 494 kts 52°
2026-04-25 05:59 -36.78834 146.04691 35565 ft 494 kts 52°
2026-04-25 05:59 -36.76816 146.08149 35998 ft 493 kts 52°
2026-04-25 05:59 -36.74822 146.11562 36417 ft 492 kts 52°
2026-04-25 06:00 -36.72804 146.15013 36832 ft 492 kts 52°
2026-04-25 06:00 -36.70786 146.18462 37224 ft 492 kts 52°
2026-04-25 06:00 -36.68757 146.21924 37341 ft 497 kts 53°
2026-04-25 06:00 -36.66714 146.25407 37335 ft 498 kts 53°
2026-04-25 06:01 -36.62640 146.32342 37317 ft 492 kts 53°
2026-04-25 06:01 -36.58607 146.39194 37335 ft 490 kts 53°
2026-04-25 06:02 -36.54597 146.45993 37337 ft 490 kts 53°
2026-04-25 06:02 -36.50557 146.52828 37336 ft 490 kts 53°
2026-04-25 06:03 -36.46509 146.59664 37338 ft 491 kts 53°
2026-04-25 06:03 -36.42446 146.66511 37342 ft 492 kts 53°
2026-04-25 06:04 -36.38371 146.73366 37336 ft 493 kts 53°
2026-04-25 06:04 -36.34290 146.80216 37343 ft 494 kts 53°
2026-04-25 06:05 -36.30195 146.87076 37353 ft 494 kts 53°
2026-04-25 06:05 -36.26126 146.93881 37345 ft 495 kts 53°
2026-04-25 06:06 -36.22028 147.00721 37344 ft 495 kts 53°
2026-04-25 06:06 -36.17921 147.07561 37338 ft 494 kts 53°
2026-04-25 06:07 -36.13818 147.14379 37344 ft 494 kts 53°
2026-04-25 06:07 -36.09712 147.21191 37345 ft 494 kts 53°
2026-04-25 06:08 -36.05605 147.27994 37341 ft 494 kts 53°
2026-04-25 06:08 -36.01539 147.34716 37347 ft 493 kts 53°
2026-04-25 06:09 -35.97425 147.41506 37343 ft 493 kts 53°
2026-04-25 06:09 -35.93336 147.48240 37347 ft 493 kts 53°
2026-04-25 06:10 -35.89215 147.55015 37346 ft 493 kts 53°
2026-04-25 06:10 -35.85088 147.61788 37345 ft 493 kts 53°
2026-04-25 06:11 -35.81020 147.68598 37349 ft 493 kts 56°
2026-04-25 06:11 -35.77271 147.75555 37349 ft 493 kts 57°
2026-04-25 06:12 -35.73542 147.82639 37353 ft 493 kts 57°
2026-04-25 06:12 -35.69783 147.89693 37352 ft 493 kts 57°
2026-04-25 06:13 -35.66018 147.96680 37354 ft 493 kts 57°
2026-04-25 06:14 -35.60306 148.07222 37353 ft 493 kts 57°
2026-04-25 06:14 -35.56499 148.14233 37358 ft 493 kts 57°
2026-04-25 06:15 -35.52716 148.21188 37361 ft 492 kts 57°
2026-04-25 06:15 -35.48912 148.28172 37362 ft 492 kts 57°
2026-04-25 06:16 -35.45098 148.35158 37359 ft 492 kts 57°
2026-04-25 06:16 -35.41281 148.42134 37359 ft 491 kts 57°
2026-04-25 06:17 -35.37468 148.49090 37365 ft 491 kts 57°
2026-04-25 06:17 -35.33652 148.56038 37356 ft 491 kts 57°
2026-04-25 06:18 -35.29854 148.62939 37352 ft 491 kts 57°
2026-04-25 06:18 -35.26034 148.69869 37365 ft 491 kts 57°
2026-04-25 06:19 -35.22207 148.76793 37360 ft 491 kts 57°
2026-04-25 06:19 -35.18374 148.83716 37358 ft 491 kts 57°
2026-04-25 06:20 -35.14544 148.90622 37361 ft 490 kts 57°
2026-04-25 06:20 -35.10712 148.97518 37365 ft 490 kts 57°
2026-04-25 06:21 -35.06876 149.04406 37356 ft 490 kts 57°
2026-04-25 06:21 -35.03038 149.11285 37362 ft 490 kts 57°
2026-04-25 06:22 -34.99226 149.18104 37363 ft 490 kts 57°
2026-04-25 06:22 -34.95381 149.24968 36935 ft 496 kts 57°
2026-04-25 06:22 -34.93423 149.28461 36188 ft 499 kts 56°
2026-04-25 06:23 -34.91440 149.31992 35353 ft 499 kts 56°
2026-04-25 06:23 -34.89482 149.35476 34627 ft 496 kts 56°
2026-04-25 06:23 -34.87566 149.38881 33995 ft 491 kts 56°
2026-04-25 06:23 -34.85628 149.42321 33364 ft 494 kts 56°
2026-04-25 06:24 -34.83680 149.45775 32883 ft 496 kts 56°
2026-04-25 06:24 -34.81730 149.49231 32562 ft 494 kts 56°
2026-04-25 06:24 -34.79784 149.52677 32332 ft 490 kts 56°
2026-04-25 06:24 -34.77859 149.56081 32115 ft 487 kts 56°
2026-04-25 06:25 -34.75942 149.59468 31596 ft 485 kts 56°
2026-04-25 06:25 -34.74032 149.62839 30927 ft 482 kts 57°
2026-04-25 06:25 -34.72129 149.66196 29987 ft 484 kts 57°
2026-04-25 06:25 -34.70224 149.69555 29263 ft 479 kts 56°
2026-04-25 06:26 -34.68342 149.72868 28592 ft 474 kts 56°
2026-04-25 06:26 -34.66479 149.76144 27959 ft 468 kts 56°
2026-04-25 06:26 -34.64637 149.79380 27329 ft 463 kts 56°
2026-04-25 06:26 -34.62814 149.82581 26719 ft 458 kts 56°
2026-04-25 06:27 -34.61006 149.85753 26107 ft 454 kts 56°
2026-04-25 06:27 -34.59219 149.88884 25506 ft 450 kts 56°
2026-04-25 06:27 -34.57443 149.91993 24909 ft 446 kts 56°
2026-04-25 06:27 -34.55707 149.95031 24316 ft 442 kts 56°
2026-04-25 06:28 -34.53935 149.98130 23658 ft 439 kts 56°
2026-04-25 06:28 -34.52222 150.01122 22998 ft 435 kts 56°
2026-04-25 06:28 -34.50505 150.04119 22391 ft 431 kts 56°
2026-04-25 06:28 -34.48801 150.07090 21806 ft 426 kts 56°
2026-04-25 06:29 -34.47118 150.10021 21226 ft 421 kts 56°
2026-04-25 06:29 -34.45450 150.12925 20742 ft 420 kts 56°
2026-04-25 06:29 -34.43783 150.15825 20329 ft 418 kts 56°
2026-04-25 06:29 -34.42120 150.18715 19730 ft 416 kts 56°
2026-04-25 06:30 -34.40463 150.21594 19148 ft 413 kts 56°
2026-04-25 06:30 -34.38827 150.24434 18526 ft 411 kts 56°
2026-04-25 06:30 -34.37197 150.27260 17851 ft 408 kts 56°
2026-04-25 06:30 -34.35577 150.30067 17237 ft 404 kts 56°
2026-04-25 06:31 -34.33973 150.32846 16638 ft 400 kts 56°
2026-04-25 06:31 -34.32381 150.35601 16053 ft 397 kts 56°
2026-04-25 06:31 -34.30806 150.38324 15475 ft 394 kts 56°
2026-04-25 06:31 -34.29242 150.41026 14901 ft 391 kts 55°
2026-04-25 06:32 -34.27700 150.43728 14326 ft 389 kts 58°
2026-04-25 06:32 -34.26458 150.46603 13827 ft 383 kts 68°
2026-04-25 06:32 -34.25653 150.49586 13537 ft 372 kts 76°
2026-04-25 06:32 -34.25191 150.52583 13378 ft 343 kts 83°
2026-04-25 06:33 -34.24929 150.55316 13127 ft 313 kts 84°
2026-04-25 06:33 -34.24695 150.57875 12833 ft 309 kts 84°
2026-04-25 06:33 -34.24460 150.60448 12442 ft 308 kts 84°
2026-04-25 06:33 -34.24223 150.63015 12087 ft 307 kts 84°
2026-04-25 06:34 -34.23982 150.65571 11723 ft 305 kts 84°
2026-04-25 06:34 -34.23739 150.68121 11357 ft 305 kts 84°
2026-04-25 06:34 -34.23494 150.70657 11038 ft 303 kts 84°
2026-04-25 06:34 -34.23250 150.73177 10704 ft 301 kts 84°
2026-04-25 06:35 -34.23005 150.75685 10369 ft 300 kts 83°
2026-04-25 06:35 -34.22761 150.78179 10036 ft 298 kts 83°
2026-04-25 06:35 -34.22599 150.79825 9768 ft 298 kts 83°
2026-04-25 06:35 -34.22352 150.82335 9373 ft 297 kts 83°
2026-04-25 06:36 -34.22110 150.84789 8963 ft 298 kts 83°
2026-04-25 06:36 -34.21863 150.87276 8539 ft 299 kts 83°
2026-04-25 06:36 -34.21615 150.89778 8112 ft 300 kts 83°
2026-04-25 06:36 -34.21367 150.92273 7688 ft 302 kts 83°
2026-04-25 06:37 -34.21117 150.94790 7292 ft 302 kts 83°
2026-04-25 06:37 -34.20867 150.97296 7071 ft 296 kts 83°
2026-04-25 06:37 -34.20625 150.99710 6993 ft 284 kts 83°
2026-04-25 06:37 -34.20394 151.02040 6887 ft 275 kts 83°
2026-04-25 06:38 -34.20184 151.04307 6714 ft 268 kts 84°
2026-04-25 06:38 -34.19984 151.06529 6458 ft 265 kts 84°
2026-04-25 06:38 -34.19790 151.08707 6289 ft 253 kts 84°
2026-04-25 06:38 -34.19611 151.10770 6005 ft 241 kts 84°
2026-04-25 06:39 -34.19441 151.12769 5605 ft 236 kts 84°
2026-04-25 06:39 -34.19283 151.14703 5295 ft 226 kts 83°
2026-04-25 06:39 -34.19138 151.16549 5033 ft 215 kts 84°
2026-04-25 06:39 -34.19007 151.18298 4744 ft 202 kts 84°
2026-04-25 06:40 -34.18891 151.19954 4355 ft 194 kts 84°
2026-04-25 06:40 -34.18730 151.21550 3952 ft 189 kts 70°
2026-04-25 06:40 -34.17977 151.22775 3453 ft 182 kts 29°
2026-04-25 06:40 -34.16791 151.23045 3098 ft 171 kts 354°
2026-04-25 06:41 -34.15587 151.22897 3042 ft 178 kts 354°
2026-04-25 06:41 -34.14348 151.22689 3016 ft 186 kts 351°
2026-04-25 06:41 -34.13084 151.22399 3002 ft 184 kts 349°
2026-04-25 06:41 -34.11835 151.22083 2989 ft 182 kts 348°
2026-04-25 06:42 -34.10583 151.21758 2809 ft 186 kts 348°
2026-04-25 06:42 -34.09355 151.21436 2594 ft 176 kts 349°
2026-04-25 06:42 -34.08201 151.21135 2357 ft 163 kts 349°
2026-04-25 06:42 -34.07140 151.20856 2141 ft 149 kts 349°
2026-04-25 06:43 -34.06132 151.20593 1970 ft 152 kts 350°
2026-04-25 06:43 -34.05120 151.20329 1779 ft 143 kts 351°
2026-04-25 06:43 -34.04184 151.20084 1597 ft 136 kts 350°
2026-04-25 06:43 -34.03253 151.19843 1420 ft 139 kts 351°
2026-04-25 06:44 -34.02289 151.19592 1214 ft 144 kts 351°
2026-04-25 06:44 -34.01326 151.19340 1017 ft 140 kts 352°
2026-04-25 06:44 -34.00389 151.19095 842 ft 138 kts 353°
2026-04-25 06:44 -33.99454 151.18852 673 ft 136 kts 353°
2026-04-25 06:45 -33.98531 151.18616 479 ft 135 kts 352°
2026-04-25 06:45 -33.97612 151.18366 301 ft 136 kts 352°
2026-04-25 06:45 -33.96689 151.18128 119 ft 135 kts 353°
2026-04-25 06:45 -33.95786 151.17905 28 ft 124 kts 345°
2026-04-25 06:46 -33.95077 151.17714 28 ft 84 kts 347°
2026-04-25 06:46 -33.94620 151.17589 29 ft 46 kts 338°
2026-04-25 06:46 -33.94416 151.17447 29 ft 20 kts 319°
2026-04-25 06:46 -33.94316 151.17343 30 ft 1 kts 320°
2026-04-25 06:47 -33.94311 151.17338 29 ft 0 kts 321°
2026-04-25 06:48 -33.94310 151.17336 29 ft 2 kts 321°
2026-04-25 06:48 -33.94280 151.17312 28 ft 9 kts 330°
2026-04-25 06:48 -33.94199 151.17281 27 ft 14 kts 346°
2026-04-25 06:48 -33.94107 151.17256 27 ft 11 kts 339°
2026-04-25 06:49 -33.94076 151.17177 26 ft 12 kts 263°
2026-04-25 06:49 -33.94098 151.17083 28 ft 12 kts 252°
2026-04-25 06:49 -33.94122 151.16983 26 ft 13 kts 254°
2026-04-25 06:49 -33.94138 151.16916 27 ft 4 kts 255°
2026-04-25 06:50 -33.94145 151.16885 27 ft 0 kts 255°
2026-04-25 06:52 -33.94145 151.16884 27 ft 1 kts 255°
2026-04-25 06:52 -33.94144 151.16855 27 ft 6 kts 291°
2026-04-25 06:52 -33.94106 151.16830 27 ft 7 kts 346°
2026-04-25 06:52 -33.94079 151.16786 27 ft 8 kts 277°
2026-04-25 06:53 -33.94092 151.16709 26 ft 10 kts 253°
2026-04-25 06:53 -33.94113 151.16623 31 ft 8 kts 254°
2026-04-25 06:53 -33.94113 151.16571 27 ft 6 kts 303°
2026-04-25 06:53 -33.94105 151.16566 32 ft 1 kts 330°
2026-04-25 06:54 -33.94093 151.16561 30 ft 3 kts 341°
2026-04-25 06:54 -33.94066 151.16550 30 ft 5 kts 344°
2026-04-25 06:54 -33.94036 151.16540 29 ft 2 kts 344°
2026-04-25 06:54 -33.94030 151.16538 29 ft 0 kts 344°